EW7806 Weather Reports


Display with metric or nautical units.
time (UTC)temp
F
wind
direction
speed
MPH
gust
MPH
rain 1hr
in
rain 24hr
in
rain mn
in
humidity
%
barometer
mb
20260505085705 57 42 0.0 5.0 0.00 0.00 0.00 67 1012.3
20260505085204 57 303 0.0 5.0 0.00 0.00 0.00 67 1012.3
20260505084705 57 61 0.0 5.0 0.00 0.00 0.00 68 1012.4
20260505084145 57 252 0.0 5.0 0.00 0.00 0.00 68 1012.5
20260505083632 57 29 0.0 3.0 0.00 0.00 0.00 67 1012.4
20260505083133 56 39 0.0 2.0 0.00 0.00 0.00 70 1012.5
20260505082611 56 22 0.0 2.0 0.00 0.00 0.00 69 1012.6
20260505081605 56 254 0.0 2.0 0.00 0.00 0.00 70 1012.6
20260505081105 56 15 0.0 2.0 0.00 0.00 0.00 71 1012.6
20260505080106 55 324 0.0 2.0 0.00 0.00 0.00 70 1012.6
20260505075603 55 180 0.0 2.0 0.00 0.00 0.00 71 1012.6
20260505075106 55 326 0.0 2.0 0.00 0.00 0.00 71 1012.6
20260505074606 55 301 0.0 1.0 0.00 0.00 0.00 71 1012.8
20260505074039 54 241 0.0 1.0 0.00 0.00 0.00 73 1012.9
20260505073535 54 223 0.0 1.0 0.00 0.00 0.00 72 1013.0
20260505072523 54 21 0.0 2.0 0.00 0.00 0.00 73 1012.9
20260505072028 54 229 0.0 2.0 0.00 0.00 0.00 75 1012.9
20260505071526 54 57 0.0 2.0 0.00 0.00 0.00 75 1012.8
20260505071020 53 69 0.0 1.0 0.00 0.00 0.00 77 1012.8
20260505070518 53 255 0.0 1.0 0.00 0.00 0.00 77 1012.8
20260505065451 52 37 0.0 1.0 0.00 0.00 0.00 79 1012.9
20260505064443 51 65 0.0 1.0 0.00 0.00 0.00 83 1012.9
20260505063933 51 70 0.0 1.0 0.00 0.00 0.00 84 1012.8
20260505063432 50 277 0.0 1.0 0.00 0.00 0.00 84 1012.9
20260505062923 50 277 0.0 1.0 0.00 0.00 0.00 84 1012.9
20260505062406 50 211 0.0 0.0 0.00 0.00 0.00 84 1012.9
20260505061909 50 43 0.0 0.0 0.00 0.00 0.00 85 1013.0
20260505061405 50 32 0.0 0.0 0.00 0.00 0.00 85 1013.0
20260505060903 50 294 0.0 0.0 0.00 0.00 0.00 85 1012.9
20260505060405 50 271 0.0 0.0 0.00 0.00 0.00 86 1013.0
20260505055904 50 269 0.0 0.0 0.00 0.00 0.00 86 1013.0
20260505054904 49 85 0.0 0.0 0.00 0.00 0.00 87 1013.0
20260505054404 49 86 0.0 0.0 0.00 0.00 0.00 87 1013.0
20260505053905 49 65 0.0 0.0 0.00 0.00 0.00 87 1012.9
20260505053405 49 65 0.0 0.0 0.00 0.00 0.00 87 1012.8
20260505052836 49 65 0.0 0.0 0.00 0.00 0.00 87 1012.8
20260505052332 49 56 0.0 0.0 0.00 0.00 0.00 87 1012.7
20260505050831 49 55 0.0 0.0 0.00 0.00 0.00 86 1012.6
20260505050350 49 55 0.0 0.0 0.00 0.00 0.00 86 1012.5
20260505041733 49 52 0.0 0.0 0.00 0.00 0.00 84 1012.7
20260505041206 49 52 0.0 0.0 0.00 0.00 0.00 83 1012.8
20260505040706 49 52 0.0 0.0 0.00 0.00 0.00 83 1012.7
20260505040207 50 44 0.0 0.0 0.00 0.00 0.00 83 1012.6
20260505035706 50 44 0.0 2.0 0.00 0.00 0.00 83 1012.5
20260505035206 50 44 0.0 2.0 0.00 0.00 0.00 83 1012.6
20260505034704 50 46 0.0 1.0 0.00 0.00 0.00 83 1012.6
20260505033705 50 27 0.0 1.0 0.00 0.00 0.00 84 1012.7
20260505033133 50 54 0.0 1.0 0.00 0.00 0.00 84 1012.7
20260505032632 50 64 0.0 0.0 0.00 0.00 0.00 85 1012.6
20260505032131 50 93 0.0 1.0 0.00 0.00 0.00 85 1012.6
20260505031634 50 63 0.0 1.0 0.00 0.00 0.00 86 1012.5
20260505031117 50 120 0.0 0.0 0.00 0.00 0.00 86 1012.6
20260505030612 51 87 0.0 1.0 0.00 0.00 0.00 86 1012.6
20260505030105 51 272 0.0 1.0 0.00 0.00 0.00 86 1012.5
20260505025537 51 269 0.0 0.0 0.00 0.00 0.00 86 1012.6
20260505025035 51 94 0.0 1.0 0.00 0.00 0.00 86 1012.6
20260505024533 51 120 0.0 1.0 0.00 0.00 0.00 86 1012.6
20260505024036 51 41 0.0 0.0 0.00 0.00 0.00 86 1012.7
20260505023034 51 38 0.0 0.0 0.00 0.00 0.00 86 1012.8
20260505021540 51 83 0.0 0.0 0.00 0.00 0.00 86 1012.9
20260505021035 51 84 0.0 0.0 0.00 0.00 0.00 86 1013.0
20260505020537 51 87 0.0 0.0 0.00 0.00 0.00 87 1013.0
20260505020025 51 105 0.0 1.0 0.00 0.00 0.00 87 1013.0
20260505015512 51 82 0.0 1.0 0.00 0.00 0.00 87 1012.9
20260505015019 51 81 0.0 0.0 0.00 0.00 0.00 87 1013.0
20260505014519 51 81 0.0 0.0 0.00 0.00 0.00 87 1013.0
20260505013519 51 58 0.0 0.0 0.00 0.00 0.00 87 1013.0
20260505013021 51 139 0.0 0.0 0.00 0.00 0.00 87 1013.0
20260505012522 51 43 0.0 0.0 0.00 0.00 0.00 87 1013.1
20260505012024 51 93 0.0 0.0 0.00 0.00 0.00 87 1013.2
20260505011454 51 78 0.0 0.0 0.00 0.00 0.00 87 1013.3
20260505010935 51 81 0.0 0.0 0.00 0.00 0.00 87 1013.3
20260505010434 51 46 0.0 0.0 0.00 0.00 0.00 87 1013.3
20260505005909 51 46 0.0 0.0 0.00 0.00 0.00 87 1013.3
20260505005405 51 46 0.0 0.0 0.00 0.00 0.00 87 1013.4
20260505004405 51 43 0.0 0.0 0.00 0.00 0.00 87 1013.5
20260505003903 51 84 0.0 0.0 0.00 0.00 0.00 87 1013.5
20260505003406 51 86 0.0 0.0 0.00 0.00 0.00 87 1013.5
20260505002904 51 61 0.0 1.0 0.00 0.00 0.00 87 1013.4
20260505002405 51 128 0.0 1.0 0.00 0.00 0.00 87 1013.5
20260505001912 51 69 0.0 0.0 0.00 0.00 0.00 87 1013.7
20260505001339 51 44 0.0 0.0 0.00 0.00 0.00 87 1013.7
20260505000825 51 39 0.0 0.0 0.00 0.00 0.00 87 1013.7
20260505000312 51 103 0.0 0.0 0.00 0.00 0.00 87 1013.8
20260504235806 51 103 0.0 0.0 0.00 0.00 0.00 87 1013.9
20260504235308 51 63 0.0 0.0 0.00 0.00 0.00 87 1013.9
20260504234807 51 49 0.0 0.0 0.00 0.00 0.00 87 1013.9
20260504234306 51 49 0.0 0.0 0.00 0.00 0.00 87 1013.9
20260504233807 51 47 0.0 0.0 0.00 0.00 0.00 87 1013.9
20260504232733 51 233 0.0 0.0 0.00 0.00 0.00 87 1014.0
20260504232232 52 233 0.0 0.0 0.00 0.00 0.00 87 1014.0
20260504231733 52 229 0.0 0.0 0.00 0.00 0.00 87 1014.0
20260504231207 52 230 0.0 0.0 0.00 0.00 0.00 87 1014.0
20260504230706 52 73 0.0 1.0 0.00 0.00 0.00 88 1014.0
20260504230207 52 73 0.0 1.0 0.00 0.00 0.00 87 1014.1
20260504225708 52 75 0.0 1.0 0.00 0.00 0.00 87 1014.1
20260504225205 52 25 0.0 1.0 0.00 0.00 0.00 87 1014.1
20260504224707 52 76 0.0 0.0 0.00 0.00 0.00 87 1014.2
20260504224209 52 56 0.0 1.0 0.00 0.00 0.00 87 1014.3
20260504223705 52 78 0.0 1.0 0.00 0.00 0.00 87 1014.3
20260504222643 52 83 0.0 0.0 0.00 0.00 0.00 87 1014.3
20260504222154 52 302 0.0 1.0 0.00 0.00 0.00 87 1014.4
20260504220631 52 167 0.0 1.0 0.00 0.00 0.00 87 1014.5
20260504220132 52 44 0.0 1.0 0.00 0.00 0.00 87 1014.5
20260504215633 52 48 0.0 1.0 0.00 0.00 0.00 87 1014.5
20260504215135 52 62 0.0 0.0 0.00 0.00 0.00 87 1014.5
20260504214634 53 82 0.0 0.0 0.00 0.00 0.00 87 1014.5
20260504214132 53 47 0.0 0.0 0.00 0.00 0.00 87 1014.5
20260504213633 53 37 0.0 1.0 0.00 0.00 0.00 87 1014.5
20260504213134 53 290 0.0 1.0 0.00 0.00 0.00 87 1014.5
20260504212610 53 38 0.0 1.0 0.00 0.00 0.00 87 1014.5
20260504211608 53 27 0.0 1.0 0.00 0.00 0.00 87 1014.5
20260504211039 53 49 0.0 1.0 0.00 0.00 0.00 87 1014.5
20260504210534 53 110 0.0 1.0 0.00 0.00 0.00 87 1014.5
20260504210034 53 49 0.0 1.0 0.00 0.00 0.00 87 1014.5
20260504205537 53 312 0.0 1.0 0.00 0.00 0.00 87 1014.5
20260504205033 53 22 0.0 1.0 0.00 0.00 0.00 87 1014.4
20260504204523 53 70 0.0 1.0 0.00 0.00 0.00 87 1014.5
20260504204010 53 37 0.0 0.0 0.00 0.00 0.00 87 1014.5
20260504203450 53 207 0.0 0.0 0.00 0.00 0.00 86 1014.5
20260504202438 53 66 0.0 0.0 0.00 0.00 0.00 86 1014.5
20260504201936 53 76 0.0 0.0 0.00 0.00 0.00 86 1014.4
20260504200908 53 67 0.0 2.0 0.00 0.00 0.00 86 1014.4
20260504200406 53 63 0.0 1.0 0.00 0.00 0.00 87 1014.3
20260504195909 53 1 0.0 1.0 0.00 0.00 0.00 87 1014.3
20260504195407 53 75 0.0 1.0 0.00 0.00 0.00 87 1014.3
20260504194345 53 327 0.0 1.0 0.00 0.00 0.00 87 1014.2
20260504193838 54 223 0.0 1.0 0.00 0.00 0.00 87 1014.2
20260504193335 54 44 0.0 0.0 0.00 0.00 0.00 87 1014.1
20260504192833 54 44 0.0 1.0 0.00 0.00 0.00 87 1014.1
20260504192332 54 37 0.0 1.0 0.00 0.00 0.00 87 1014.1
20260504191838 54 94 0.0 0.0 0.00 0.00 0.00 87 1014.2
20260504190314 54 51 0.0 0.0 0.00 0.00 0.00 87 1014.0
20260504185312 55 93 0.0 0.0 0.00 0.00 0.00 87 1013.9
20260504184934 55 56 0.0 0.0 0.00 0.00 0.00 87 1013.9
20260504183905 55 65 0.0 1.0 0.00 0.00 0.00 87 1013.9
20260504182857 55 51 0.0 1.0 0.00 0.00 0.00 87 1013.8
20260504181837 55 96 0.0 0.0 0.00 0.00 0.00 87 1013.8
20260504180836 55 77 0.0 0.0 0.00 0.00 0.00 87 1013.8
20260504180333 55 90 0.0 0.0 0.00 0.00 0.00 87 1013.9
20260504175833 55 93 0.0 1.0 0.00 0.00 0.00 87 1014.0
20260504175336 56 60 0.0 1.0 0.00 0.00 0.00 86 1014.0
20260504174832 56 105 0.0 1.0 0.00 0.00 0.00 86 1014.0
20260504173824 56 41 0.0 1.0 0.00 0.00 0.00 86 1014.0
20260504173308 56 127 0.0 0.0 0.00 0.00 0.00 85 1013.9
20260504172809 56 83 0.0 1.0 0.00 0.00 0.00 86 1013.9
20260504171806 56 91 0.0 1.0 0.00 0.00 0.00 85 1013.8
20260504171309 56 27 0.0 2.0 0.00 0.00 0.00 85 1013.8
20260504170804 57 127 0.0 2.0 0.00 0.00 0.00 85 1013.8
20260504160207 58 305 0.0 2.0 0.00 0.00 0.00 84 1013.7
20260504150705 59 148 0.0 2.0 0.00 0.00 0.00 83 1013.7
20260504150211 59 224 0.0 2.0 0.00 0.00 0.00 83 1013.8
20260504140638 60 56 0.0 4.0 0.00 0.00 0.00 83 1013.8
20260504140132 61 68 0.0 1.0 0.00 0.00 0.00 84 1013.8
20260504130516 61 32 0.0 1.0 0.00 0.00 0.00 86 1013.9
20260504100205 57 42 0.0 0.0 0.00 0.10 0.00 91 1013.9